Regional Weather Roundup
Issued by NWS

Home | Current Version | Previous Version | Text Only | Print | Product List | Glossary Off
Versions: 1 2 3 4 5 6 7 8 9 10 11 12 13 14 15 16 17 18 19 20 21 22 23 24 25 26 27 28 29 30 31 32 33 34 35 36 37 38 39 40 41 42 43 44 45 46 47 48 49 50

000
ASUS44 KMEG 211500
RWRTN
TENNESSEE HOURLY STATE WEATHER ROUNDUP
NATIONAL WEATHER SERVICE MEMPHIS TN
900 AM CST SAT JAN 21 2017

TNZ002-004-019-021-049-052-054-088>092-211600-
WEST TENNESSEE

CITY           SKY/WX    TMP DP  RH WIND       PRES   REMARKS
MEMPHIS INTL   MOSUNNY   63  52  67 SE12      29.67S
NWS MEMPHIS      N/A     62 N/A N/A MISG        N/A
JACKSON        LGT RAIN  60  54  80 S10       29.69S
DYERSBURG      CLOUDY    61  52  72 S6        29.67R
UNION CITY     PTSUNNY   61  59  94 S12       29.67R
PARIS          CLOUDY    57  52  82 CALM      29.69F
$$

TNZ008-025-027-028-033-062-065-066-211600-
NORTH MIDDLE TENNESSEE

CITY           SKY/WX    TMP DP  RH WIND       PRES   REMARKS
NASHVILLE      CLOUDY    61  57  87 S9        29.74F
CLARKSVILLE    CLOUDY    59  52  77 S5        29.70F
SMYRNA         CLOUDY    58  56  93 SW6       29.76R
CROSSVILLE     FOG       53  53 100 CALM      29.81R VSB 3/4
$$

TNZ061-075-076-078-094-096-097-211600-
SOUTH MIDDLE TENNESSEE

CITY           SKY/WX    TMP DP  RH WIND       PRES   REMARKS
TULLAHOMA      PTSUNNY   57  57 100 S6        29.81R
WINCHESTER     PTSUNNY   59  57  94 VRB3      29.82R
MCMINNVILLE    PTSUNNY   54  54 100 W5        29.79R
COLUMBIA       MOSUNNY   61  61 100 S9        29.71F
SHELBYVILLE    CLOUDY    61  55  82 W10       29.79R
$$

TNZ017-018-042-046-047-211600-
NORTHEAST TENNESSEE

CITY           SKY/WX    TMP DP  RH WIND       PRES   REMARKS
TRI CITIES     CLOUDY    47  46  97 CALM      29.87S
$$

TNZ012-013-036-069-073-074-211600-
CENTRAL EAST TENNESSEE

CITY           SKY/WX    TMP DP  RH WIND       PRES   REMARKS
KNOXVILLE      CLOUDY    51  49  92 NE6       29.79F
OAK RIDGE      CLOUDY    52  49  89 CALM      29.82F
GATLINBURG     SUNNY     46  46 100 CALM      29.81F
$$

TNZ083-085-099-211600-
SOUTHEAST TENNESSEE

CITY           SKY/WX    TMP DP  RH WIND       PRES   REMARKS
CHATTANOOGA    LGT RAIN  56  55  97 CALM      29.82R VSB 1/2
$$

SKY/WX REPORTED AS FAIR MEANS FEW OR NO CLOUDS BELOW
12 THOUSAND FEET.




USA.gov is the U.S. government's official web portal to all federal, state and local government web resources and services.